TimeEDT,TemperatureF,Dew PointF,Humidity,Sea Level PressureIn,VisibilityMPH,Wind Direction,Wind SpeedMPH,Gust SpeedMPH,PrecipitationIn,Events,Conditions,WindDirDegrees,DateUTC
12:53 AM,82.9,73.0,72,30.00,10.0,ESE,11.5,-,N/A,,Clear,110,2013-08-14 04:53:00
1:53 AM,82.9,73.0,72,29.99,10.0,East,9.2,-,N/A,,Clear,100,2013-08-14 05:53:00
2:53 AM,82.9,73.0,72,29.98,10.0,East,12.7,-,N/A,,Clear,100,2013-08-14 06:53:00
3:53 AM,82.9,73.0,72,29.97,10.0,ESE,12.7,-,N/A,,Partly Cloudy,120,2013-08-14 07:53:00
4:53 AM,82.0,72.0,71,29.96,10.0,ESE,12.7,-,N/A,,Partly Cloudy,110,2013-08-14 08:53:00
5:53 AM,82.0,72.0,71,29.96,10.0,ESE,11.5,-,N/A,,Partly Cloudy,110,2013-08-14 09:53:00
6:53 AM,82.0,71.1,69,29.96,10.0,SE,8.1,-,N/A,,Clear,130,2013-08-14 10:53:00
7:53 AM,82.9,72.0,69,29.97,10.0,ESE,8.1,-,N/A,,Clear,110,2013-08-14 11:53:00
8:53 AM,84.0,73.0,69,29.98,10.0,ESE,10.4,-,N/A,,Partly Cloudy,120,2013-08-14 12:53:00
9:53 AM,84.9,73.0,67,29.98,10.0,ESE,9.2,-,N/A,,Clear,120,2013-08-14 13:53:00
10:53 AM,86.0,73.9,67,29.99,10.0,ESE,10.4,-,N/A,,Clear,120,2013-08-14 14:53:00
11:53 AM,87.1,75.0,67,30.00,10.0,SE,11.5,-,N/A,,Clear,130,2013-08-14 15:53:00
12:53 PM,88.0,75.9,67,29.99,10.0,ESE,11.5,-,N/A,,Clear,110,2013-08-14 16:53:00
1:53 PM,88.0,75.9,67,29.98,10.0,ESE,12.7,-,N/A,,Partly Cloudy,120,2013-08-14 17:53:00
2:53 PM,84.9,75.9,74,29.96,10.0,SE,9.2,-,N/A,,Scattered Clouds,130,2013-08-14 18:53:00
3:53 PM,86.0,77.0,74,29.94,10.0,SE,9.2,-,N/A,,Clear,130,2013-08-14 19:53:00
4:53 PM,87.1,75.9,69,29.94,10.0,ESE,12.7,-,N/A,,Clear,120,2013-08-14 20:53:00
5:53 PM,84.9,75.9,74,29.93,10.0,SE,10.4,-,N/A,,Clear,130,2013-08-14 21:53:00
6:53 PM,84.0,75.0,74,29.94,10.0,ESE,10.4,-,N/A,,Clear,120,2013-08-14 22:53:00
7:53 PM,84.0,75.0,74,29.95,10.0,ESE,12.7,-,N/A,,Partly Cloudy,110,2013-08-14 23:53:00
8:44 PM,82.4,75.2,79,29.97,10.0,ESE,10.4,-,N/A,,Mostly Cloudy,120,2013-08-15 00:44:00
8:51 PM,82.4,75.2,79,29.98,10.0,ESE,9.2,-,N/A,,Mostly Cloudy,120,2013-08-15 00:51:00
8:53 PM,84.0,75.9,76,29.98,10.0,ESE,9.2,-,N/A,,Mostly Cloudy,120,2013-08-15 00:53:00
9:53 PM,84.0,75.9,76,30.00,10.0,ESE,8.1,-,N/A,,Partly Cloudy,120,2013-08-15 01:53:00
10:53 PM,84.0,75.9,76,30.02,10.0,SE,9.2,-,N/A,,Partly Cloudy,130,2013-08-15 02:53:00
11:28 PM,84.2,75.2,74,30.02,10.0,SE,10.4,-,N/A,Thunderstorm,Partly Cloudy,140,2013-08-15 03:28:00
11:53 PM,82.0,73.9,76,30.03,10.0,SE,19.6,24.2,N/A,Thunderstorm,Scattered Clouds,140,2013-08-15 03:53:00